Weather Roundup
Issued by NWS Chicago, IL

Home | Current Version | Previous Version | Graphics & Text | Print | Product List | Glossary On
Versions: 1 2 3 4 5 6 7 8 9 10 11 12 13 14 15 16 17 18 19 20 21 22 23 24 25 26 27 28 29 30 31 32 33 34 35 36 37 38 39 40 41 42 43 44 45 46 47 48 49 50
078
NZUS59 KLOT 241612
HRRLOT

CHICAGO AREA WEATHER ROUNDUP
NATIONAL WEATHER SERVICE CHICAGO/ROMEOVILLE IL
1000 AM CST TUE JAN 24 2017

NOTE: "FAIR" INDICATES FEW OR NO CLOUDS BELOW 12,000 FEET WITH NO
SIGNIFICANT WEATHER AND/OR OBSTRUCTIONS TO VISIBILITY.

* THESE STATIONS ARE NOT UNDER NWS QUALITY CONTROL. THEY ALSO MAY NOT
  REPORT WEATHER SUCH AS PRECIPITATION OR FOG.

ILZ005-006-012>014-019>023-241700-
NORTHEAST ILLINOIS

CITY           SKY/WX    TMP DP  RH WIND       PRES   REMARKS
OHARE          CLOUDY    35  31  85 VRB5      29.89R WCI  31
MIDWAY         CLOUDY    37  30  75 NW9       29.89S
AURORA         CLOUDY    37  31  78 NW5       29.89S
LANSING*       CLOUDY    37  34  90 N3        29.90S
JOLIET*        CLOUDY    38  33  80 W3        29.90S
WAUKEGAN       CLOUDY    36  32  85 VRB3      29.88S
DUPAGE AIRPORT CLOUDY    35  30  82 NW6       29.88S WCI  30
WHEELING       CLOUDY    34  31  88 NW8       29.90S WCI  27
KANKAKEE*      CLOUDY    38  32  79 CALM      29.91S
MORRIS*        CLOUDY    38  32  79 N3        29.89S
LEWIS AIRPORT* CLOUDY    36  33  90 NW3       29.89S
NORTHERLY ISL    N/A     36  31  82 W3          N/A
$$

WIZ051-052-058>065-066-070>072-241700-
SOUTHEAST WISCONSIN

CITY           SKY/WX    TMP DP  RH WIND       PRES   REMARKS
MILWAUKEE      CLOUDY    38  33  82 NW7       29.88S
KENOSHA*       CLOUDY    36  32  85 NW7       29.88F
RACINE*        CLOUDY    36  32  85 NW5       29.90S
WAUKESHA       CLOUDY    34  32  93 NW5       29.89S FOG     WCI  30
WEST BEND      CLOUDY    36  34  93 NW6       29.86F
$$

INZ001>003-010>013-019-020-241700-
NORTHWEST INDIANA

CITY           SKY/WX    TMP DP  RH WIND       PRES   REMARKS
GARY*          CLOUDY    39  32  75 NW7       29.90S
MICHIGAN CITY* NOT AVBL
RENSSELAER*    NOT AVBL
VALPARAISO     CLOUDY    39  34  82 NW8       29.89R
$$

LMZ740>746-241700-
SOUTHERN LAKE MICHIGAN

STATION/POSITION TIME  SKY/WX   TEMP WIND        PRES    VSBY
                                AIR  DIR/SP/G
                 (UTC)          (F)  (DEG/KT/KT) (MB)    (MI)
HARRISON CRIB    1540            36  340/  7/  8   N/A
BURNHAM HARBOR   1600            36  290/  3/  9   N/A
CALUMET HARBOR   1548            37  280/  2/  4 1011.9R
BURNS HARBOR     1502            35  330/  5/  7 1012.9
MICHIGAN CITY    NOT AVBL
$$

ABBREVIATIONS USED IN REMARKS
   TC - TEMPERATURE IN CELSIUS
  WCI - WIND CHILL INDEX
   HX - HEAT INDEX
  VSB - VISIBILITY
$$




USA.gov is the U.S. government's official web portal to all federal, state and local government web resources and services.